| time (UTC) | temp F | wind direction | speed MPH | gust MPH | rain 1hr in | rain 24hr in | rain mn in | humidity % | barometer mb |
| 20260507133004 | 60 | 163 | 4.0 | 10.0 | 0.00 | 0.00 | 0.00 | 53 | 1015.6 |
| 20260507132503 | 60 | 162 | 4.0 | 10.0 | 0.00 | 0.00 | 0.00 | 54 | 1015.6 |
| 20260507132003 | 61 | 160 | 4.0 | 10.0 | 0.00 | 0.00 | 0.00 | 51 | 1015.6 |
| 20260507131504 | 61 | 151 | 4.0 | 10.0 | 0.00 | 0.00 | 0.00 | 52 | 1015.5 |
| 20260507131003 | 62 | 134 | 3.0 | 8.0 | 0.00 | 0.00 | 0.00 | 49 | 1015.5 |
| 20260507130504 | 62 | 159 | 4.0 | 9.0 | 0.00 | 0.00 | 0.00 | 50 | 1015.5 |
| 20260507130214 | 63 | 170 | 4.0 | 10.0 | 0.00 | 0.00 | 0.00 | 50 | 1015.5 |
| 20260507125504 | 63 | 164 | 5.0 | 10.0 | 0.00 | 0.00 | 0.00 | 49 | 1015.5 |
| 20260507125004 | 64 | 164 | 5.0 | 9.0 | 0.00 | 0.00 | 0.00 | 49 | 1015.6 |
| 20260507124503 | 64 | 156 | 4.0 | 9.0 | 0.00 | 0.00 | 0.00 | 49 | 1015.5 |
| 20260507124003 | 64 | 158 | 4.0 | 8.0 | 0.00 | 0.00 | 0.00 | 52 | 1015.6 |
| 20260507123503 | 63 | 167 | 4.0 | 10.0 | 0.00 | 0.00 | 0.00 | 52 | 1015.5 |
| 20260507123003 | 64 | 178 | 5.0 | 13.0 | 0.00 | 0.00 | 0.00 | 47 | 1015.6 |
| 20260507122504 | 64 | 185 | 5.0 | 13.0 | 0.00 | 0.00 | 0.00 | 50 | 1015.7 |
| 20260507122004 | 64 | 181 | 3.0 | 10.0 | 0.00 | 0.00 | 0.00 | 51 | 1015.6 |
| 20260507121503 | 64 | 188 | 3.0 | 10.0 | 0.00 | 0.00 | 0.00 | 51 | 1015.6 |
| 20260507121003 | 63 | 192 | 5.0 | 12.0 | 0.00 | 0.00 | 0.00 | 53 | 1015.7 |
| 20260507120504 | 63 | 196 | 5.0 | 12.0 | 0.00 | 0.00 | 0.00 | 51 | 1015.8 |
| 20260507120003 | 63 | 201 | 3.0 | 12.0 | 0.00 | 0.00 | 0.00 | 51 | 1015.8 |
| 20260507115503 | 62 | 182 | 2.0 | 7.0 | 0.00 | 0.00 | 0.00 | 59 | 1015.9 |
| 20260507115004 | 62 | 179 | 1.0 | 8.0 | 0.00 | 0.00 | 0.00 | 55 | 1015.9 |
| 20260507114714 | 62 | 192 | 3.0 | 9.0 | 0.00 | 0.00 | 0.00 | 55 | 1015.9 |
| 20260507114003 | 61 | 189 | 4.0 | 9.0 | 0.00 | 0.00 | 0.00 | 55 | 1015.9 |
| 20260507113714 | 60 | 180 | 3.0 | 9.0 | 0.00 | 0.00 | 0.00 | 56 | 1015.9 |
| 20260507113004 | 60 | 173 | 4.0 | 9.0 | 0.00 | 0.00 | 0.00 | 55 | 1015.9 |
| 20260507112503 | 60 | 166 | 4.0 | 9.0 | 0.00 | 0.00 | 0.00 | 55 | 1016.0 |
| 20260507112003 | 61 | 152 | 2.0 | 9.0 | 0.00 | 0.00 | 0.00 | 56 | 1016.0 |
| 20260507111506 | 61 | 171 | 3.0 | 10.0 | 0.00 | 0.00 | 0.00 | 56 | 1015.9 |
| 20260507111004 | 61 | 181 | 5.0 | 10.0 | 0.00 | 0.00 | 0.00 | 55 | 1016.1 |
| 20260507110504 | 61 | 189 | 5.0 | 11.0 | 0.00 | 0.00 | 0.00 | 54 | 1016.1 |
| 20260507110005 | 61 | 190 | 4.0 | 11.0 | 0.00 | 0.00 | 0.00 | 57 | 1016.1 |
| 20260507105504 | 60 | 194 | 3.0 | 9.0 | 0.00 | 0.00 | 0.00 | 57 | 1016.2 |
| 20260507105003 | 60 | 196 | 3.0 | 9.0 | 0.00 | 0.00 | 0.00 | 59 | 1016.2 |
| 20260507104504 | 60 | 168 | 4.0 | 9.0 | 0.00 | 0.00 | 0.00 | 59 | 1016.2 |
| 20260507104003 | 60 | 149 | 4.0 | 10.0 | 0.00 | 0.00 | 0.00 | 60 | 1016.3 |
| 20260507103715 | 59 | 150 | 4.0 | 10.0 | 0.00 | 0.00 | 0.00 | 59 | 1016.3 |
| 20260507103003 | 58 | 183 | 2.0 | 8.0 | 0.00 | 0.00 | 0.00 | 64 | 1016.3 |
| 20260507101503 | 57 | 193 | 6.0 | 11.0 | 0.00 | 0.00 | 0.00 | 67 | 1016.3 |
| 20260507101003 | 57 | 187 | 5.0 | 11.0 | 0.00 | 0.00 | 0.00 | 65 | 1016.4 |
| 20260507100504 | 58 | 164 | 4.0 | 10.0 | 0.00 | 0.00 | 0.00 | 61 | 1016.4 |
| 20260507100216 | 59 | 159 | 4.0 | 10.0 | 0.00 | 0.00 | 0.00 | 63 | 1016.4 |
| 20260507095503 | 58 | 168 | 3.0 | 8.0 | 0.00 | 0.00 | 0.00 | 68 | 1016.3 |
| 20260507095003 | 57 | 163 | 4.0 | 9.0 | 0.00 | 0.00 | 0.00 | 66 | 1016.4 |
| 20260507094504 | 57 | 162 | 4.0 | 9.0 | 0.00 | 0.00 | 0.00 | 67 | 1016.4 |
| 20260507094213 | 57 | 168 | 4.0 | 7.0 | 0.00 | 0.00 | 0.00 | 67 | 1016.5 |
| 20260507093504 | 56 | 172 | 3.0 | 8.0 | 0.00 | 0.00 | 0.00 | 67 | 1016.5 |
| 20260507093004 | 57 | 160 | 4.0 | 8.0 | 0.00 | 0.00 | 0.00 | 67 | 1016.5 |
| 20260507092503 | 57 | 172 | 4.0 | 8.0 | 0.00 | 0.00 | 0.00 | 68 | 1016.5 |
| 20260507092004 | 56 | 184 | 4.0 | 8.0 | 0.00 | 0.00 | 0.00 | 70 | 1016.5 |
| 20260507091503 | 56 | 181 | 4.0 | 9.0 | 0.00 | 0.00 | 0.00 | 68 | 1016.5 |
| 20260507091007 | 56 | 188 | 3.0 | 9.0 | 0.00 | 0.00 | 0.00 | 67 | 1016.5 |
| 20260507090504 | 56 | 211 | 1.0 | 8.0 | 0.00 | 0.00 | 0.00 | 71 | 1016.5 |
| 20260507090216 | 56 | 203 | 1.0 | 5.0 | 0.00 | 0.00 | 0.00 | 71 | 1016.5 |
| 20260507085003 | 55 | 211 | 2.0 | 7.0 | 0.00 | 0.00 | 0.00 | 73 | 1016.6 |
| 20260507084504 | 55 | 177 | 2.0 | 7.0 | 0.00 | 0.00 | 0.00 | 72 | 1016.5 |
| 20260507084003 | 55 | 171 | 2.0 | 6.0 | 0.00 | 0.00 | 0.00 | 70 | 1016.5 |
| 20260507083503 | 56 | 189 | 1.0 | 5.0 | 0.00 | 0.00 | 0.00 | 70 | 1016.5 |
| 20260507083004 | 56 | 205 | 1.0 | 6.0 | 0.00 | 0.00 | 0.00 | 71 | 1016.6 |
| 20260507082504 | 56 | 203 | 1.0 | 6.0 | 0.00 | 0.00 | 0.00 | 70 | 1016.6 |
| 20260507082004 | 56 | 201 | 1.0 | 5.0 | 0.00 | 0.00 | 0.00 | 70 | 1016.6 |
| 20260507081504 | 56 | 216 | 1.0 | 4.0 | 0.00 | 0.00 | 0.00 | 71 | 1016.6 |
| 20260507081003 | 56 | 215 | 0.0 | 4.0 | 0.00 | 0.00 | 0.00 | 71 | 1016.6 |
| 20260507080503 | 56 | 222 | 0.0 | 2.0 | 0.00 | 0.00 | 0.00 | 73 | 1016.6 |
| 20260507080005 | 55 | 0 | 0.0 | 0.0 | 0.00 | 0.00 | 0.00 | 74 | 1016.6 |
| 20260507075503 | 55 | 0 | 0.0 | 0.0 | 0.00 | 0.00 | 0.00 | 75 | 1016.6 |
| 20260507075003 | 54 | 0 | 0.0 | 0.0 | 0.00 | 0.00 | 0.00 | 76 | 1016.6 |
| 20260507074513 | 54 | 0 | 0.0 | 0.0 | 0.00 | 0.00 | 0.00 | 76 | 1016.6 |
| 20260507074214 | 53 | 0 | 0.0 | 0.0 | 0.00 | 0.00 | 0.00 | 77 | 1016.6 |
| 20260507073504 | 52 | 0 | 0.0 | 0.0 | 0.00 | 0.00 | 0.00 | 78 | 1016.5 |
| 20260507073004 | 52 | 0 | 0.0 | 0.0 | 0.00 | 0.00 | 0.00 | 80 | 1016.5 |
| 20260507072713 | 51 | 0 | 0.0 | 0.0 | 0.00 | 0.00 | 0.00 | 82 | 1016.5 |
| 20260507072004 | 49 | 0 | 0.0 | 0.0 | 0.00 | 0.00 | 0.00 | 84 | 1016.5 |
| 20260507071714 | 49 | 0 | 0.0 | 0.0 | 0.00 | 0.00 | 0.00 | 85 | 1016.4 |
| 20260507071003 | 48 | 0 | 0.0 | 0.0 | 0.00 | 0.00 | 0.00 | 89 | 1016.4 |
| 20260507070715 | 47 | 0 | 0.0 | 0.0 | 0.00 | 0.00 | 0.00 | 91 | 1016.4 |
| 20260507070006 | 46 | 0 | 0.0 | 0.0 | 0.00 | 0.00 | 0.00 | 94 | 1016.4 |
| 20260507065504 | 45 | 132 | 0.0 | 1.0 | 0.00 | 0.00 | 0.00 | 95 | 1016.4 |
| 20260507065004 | 44 | 132 | 0.0 | 1.0 | 0.00 | 0.00 | 0.00 | 95 | 1016.4 |
| 20260507064504 | 43 | 131 | 0.0 | 2.0 | 0.00 | 0.00 | 0.00 | 95 | 1016.4 |
| 20260507064215 | 43 | 131 | 0.0 | 2.0 | 0.00 | 0.00 | 0.00 | 95 | 1016.3 |
| 20260507063718 | 42 | 131 | 0.0 | 2.0 | 0.00 | 0.00 | 0.00 | 96 | 1016.3 |
| 20260507063004 | 41 | 0 | 0.0 | 0.0 | 0.00 | 0.00 | 0.00 | 96 | 1016.3 |
| 20260507062504 | 40 | 0 | 0.0 | 0.0 | 0.00 | 0.00 | 0.00 | 96 | 1016.3 |
| 20260507062004 | 40 | 0 | 0.0 | 0.0 | 0.00 | 0.00 | 0.00 | 96 | 1016.3 |
| 20260507061503 | 39 | 0 | 0.0 | 0.0 | 0.00 | 0.00 | 0.00 | 95 | 1016.3 |
| 20260507061003 | 38 | 0 | 0.0 | 0.0 | 0.00 | 0.00 | 0.00 | 95 | 1016.3 |
| 20260507060504 | 38 | 0 | 0.0 | 0.0 | 0.00 | 0.00 | 0.00 | 95 | 1016.2 |
| 20260507060003 | 38 | 0 | 0.0 | 0.0 | 0.00 | 0.00 | 0.00 | 95 | 1016.2 |
| 20260507055503 | 38 | 0 | 0.0 | 0.0 | 0.00 | 0.00 | 0.00 | 95 | 1016.2 |
| 20260507055215 | 37 | 0 | 0.0 | 0.0 | 0.00 | 0.00 | 0.00 | 95 | 1016.2 |
| 20260507054504 | 37 | 0 | 0.0 | 0.0 | 0.00 | 0.00 | 0.00 | 95 | 1016.2 |
| 20260507054003 | 36 | 175 | 0.0 | 2.0 | 0.00 | 0.00 | 0.00 | 94 | 1016.2 |
| 20260507053504 | 36 | 175 | 0.0 | 2.0 | 0.00 | 0.00 | 0.00 | 95 | 1016.1 |
| 20260507053005 | 36 | 175 | 0.0 | 1.0 | 0.00 | 0.00 | 0.00 | 94 | 1016.2 |
| 20260507052503 | 35 | 0 | 0.0 | 0.0 | 0.00 | 0.00 | 0.00 | 94 | 1016.2 |
| 20260507052217 | 35 | 0 | 0.0 | 0.0 | 0.00 | 0.00 | 0.00 | 94 | 1016.1 |
| 20260507051504 | 35 | 271 | 0.0 | 1.0 | 0.00 | 0.00 | 0.00 | 93 | 1016.2 |
| 20260507051003 | 34 | 0 | 0.0 | 0.0 | 0.00 | 0.00 | 0.00 | 93 | 1016.2 |
| 20260507050504 | 34 | 0 | 0.0 | 0.0 | 0.00 | 0.00 | 0.00 | 93 | 1016.1 |
| 20260507050214 | 34 | 0 | 0.0 | 0.0 | 0.00 | 0.00 | 0.00 | 93 | 1016.1 |
| 20260507045503 | 34 | 0 | 0.0 | 0.0 | 0.00 | 0.00 | 0.00 | 93 | 1016.1 |
| 20260507045003 | 34 | 0 | 0.0 | 0.0 | 0.00 | 0.00 | 0.00 | 93 | 1016.1 |
| 20260507044503 | 34 | 0 | 0.0 | 0.0 | 0.00 | 0.00 | 0.00 | 92 | 1016.1 |
| 20260507044216 | 34 | 0 | 0.0 | 0.0 | 0.00 | 0.00 | 0.00 | 93 | 1016.0 |
| 20260507043503 | 34 | 0 | 0.0 | 0.0 | 0.00 | 0.00 | 0.00 | 92 | 1015.9 |
| 20260507043004 | 34 | 0 | 0.0 | 0.0 | 0.00 | 0.00 | 0.00 | 92 | 1016.0 |
| 20260507042504 | 35 | 0 | 0.0 | 0.0 | 0.00 | 0.00 | 0.00 | 92 | 1015.9 |
| 20260507042003 | 35 | 0 | 0.0 | 0.0 | 0.00 | 0.00 | 0.00 | 92 | 1015.9 |
| 20260507041504 | 35 | 0 | 0.0 | 0.0 | 0.00 | 0.00 | 0.00 | 92 | 1015.9 |
| 20260507041003 | 35 | 0 | 0.0 | 0.0 | 0.00 | 0.00 | 0.00 | 92 | 1015.9 |
| 20260507040504 | 35 | 0 | 0.0 | 0.0 | 0.00 | 0.00 | 0.00 | 92 | 1015.9 |
| 20260507040004 | 35 | 0 | 0.0 | 0.0 | 0.00 | 0.00 | 0.00 | 92 | 1015.8 |
| 20260507035504 | 35 | 0 | 0.0 | 0.0 | 0.00 | 0.00 | 0.00 | 92 | 1015.9 |
| 20260507035003 | 35 | 0 | 0.0 | 0.0 | 0.00 | 0.00 | 0.00 | 92 | 1015.9 |
| 20260507034503 | 35 | 0 | 0.0 | 0.0 | 0.00 | 0.00 | 0.00 | 92 | 1015.9 |
| 20260507034216 | 35 | 0 | 0.0 | 0.0 | 0.00 | 0.00 | 0.00 | 92 | 1015.9 |
| 20260507033504 | 36 | 0 | 0.0 | 0.0 | 0.00 | 0.00 | 0.00 | 92 | 1016.0 |
| 20260507033212 | 36 | 0 | 0.0 | 0.0 | 0.00 | 0.00 | 0.00 | 92 | 1016.1 |
| 20260507032504 | 36 | 0 | 0.0 | 0.0 | 0.00 | 0.00 | 0.00 | 92 | 1016.0 |
| 20260507032213 | 36 | 0 | 0.0 | 0.0 | 0.00 | 0.00 | 0.00 | 92 | 1016.1 |
| 20260507031504 | 36 | 0 | 0.0 | 0.0 | 0.00 | 0.00 | 0.00 | 93 | 1016.0 |
| 20260507031004 | 36 | 0 | 0.0 | 0.0 | 0.00 | 0.00 | 0.00 | 92 | 1016.1 |
| 20260507030504 | 36 | 0 | 0.0 | 0.0 | 0.00 | 0.00 | 0.00 | 93 | 1016.1 |
| 20260507030005 | 36 | 0 | 0.0 | 0.0 | 0.00 | 0.00 | 0.00 | 92 | 1016.1 |
| 20260507025503 | 36 | 0 | 0.0 | 0.0 | 0.00 | 0.00 | 0.00 | 92 | 1016.1 |
| 20260507025004 | 36 | 0 | 0.0 | 0.0 | 0.00 | 0.00 | 0.00 | 92 | 1015.9 |
| 20260507024504 | 36 | 0 | 0.0 | 0.0 | 0.00 | 0.00 | 0.00 | 92 | 1016.0 |
| 20260507024003 | 36 | 0 | 0.0 | 0.0 | 0.00 | 0.00 | 0.00 | 92 | 1015.9 |
| 20260507023504 | 36 | 0 | 0.0 | 0.0 | 0.00 | 0.00 | 0.00 | 92 | 1015.9 |
| 20260507023218 | 36 | 0 | 0.0 | 0.0 | 0.00 | 0.00 | 0.00 | 92 | 1015.9 |
| 20260507022504 | 36 | 0 | 0.0 | 0.0 | 0.00 | 0.00 | 0.00 | 92 | 1015.9 |
| 20260507022214 | 36 | 268 | 0.0 | 3.0 | 0.00 | 0.00 | 0.00 | 92 | 1015.9 |
| 20260507021717 | 36 | 269 | 1.0 | 3.0 | 0.00 | 0.00 | 0.00 | 92 | 1015.9 |
| 20260507021003 | 36 | 265 | 0.0 | 3.0 | 0.00 | 0.00 | 0.00 | 92 | 1015.9 |
| 20260507020504 | 36 | 0 | 0.0 | 0.0 | 0.00 | 0.00 | 0.00 | 92 | 1015.9 |
| 20260507020216 | 36 | 0 | 0.0 | 0.0 | 0.00 | 0.00 | 0.00 | 91 | 1015.9 |
| 20260507015503 | 36 | 0 | 0.0 | 0.0 | 0.00 | 0.00 | 0.00 | 91 | 1015.9 |
| 20260507015004 | 36 | 0 | 0.0 | 0.0 | 0.00 | 0.00 | 0.00 | 91 | 1015.9 |
| 20260507014504 | 36 | 0 | 0.0 | 0.0 | 0.00 | 0.00 | 0.00 | 91 | 1015.9 |
| 20260507014213 | 36 | 0 | 0.0 | 0.0 | 0.00 | 0.00 | 0.00 | 91 | 1016.0 |
| 20260507013503 | 37 | 0 | 0.0 | 0.0 | 0.00 | 0.00 | 0.00 | 91 | 1016.0 |
| 20260507013004 | 37 | 0 | 0.0 | 0.0 | 0.00 | 0.00 | 0.00 | 91 | 1016.0 |
| 20260507012503 | 37 | 0 | 0.0 | 0.0 | 0.00 | 0.00 | 0.00 | 91 | 1016.0 |
| 20260507012215 | 37 | 0 | 0.0 | 0.0 | 0.00 | 0.00 | 0.00 | 91 | 1016.0 |
| 20260507011503 | 37 | 0 | 0.0 | 0.0 | 0.00 | 0.00 | 0.00 | 90 | 1016.0 |
| 20260507011215 | 37 | 0 | 0.0 | 0.0 | 0.00 | 0.00 | 0.00 | 90 | 1016.0 |
| 20260507010713 | 37 | 0 | 0.0 | 0.0 | 0.00 | 0.00 | 0.00 | 90 | 1015.9 |
| 20260507010003 | 38 | 0 | 0.0 | 0.0 | 0.00 | 0.00 | 0.00 | 90 | 1016.0 |
| 20260507005714 | 38 | 0 | 0.0 | 0.0 | 0.00 | 0.00 | 0.00 | 90 | 1015.9 |
| 20260507005003 | 38 | 0 | 0.0 | 0.0 | 0.00 | 0.00 | 0.00 | 90 | 1015.9 |
| 20260507004503 | 38 | 0 | 0.0 | 0.0 | 0.00 | 0.00 | 0.00 | 90 | 1015.9 |
| 20260507004004 | 38 | 0 | 0.0 | 0.0 | 0.00 | 0.00 | 0.00 | 90 | 1015.9 |
| 20260507003504 | 38 | 0 | 0.0 | 0.0 | 0.00 | 0.00 | 0.00 | 90 | 1015.9 |
| 20260507003004 | 38 | 277 | 0.0 | 2.0 | 0.00 | 0.00 | 0.00 | 90 | 1016.0 |
| 20260507002504 | 38 | 318 | 0.0 | 2.0 | 0.00 | 0.00 | 0.00 | 90 | 1016.1 |
| 20260507002004 | 38 | 338 | 0.0 | 2.0 | 0.00 | 0.00 | 0.00 | 90 | 1016.1 |
| 20260507001713 | 38 | 9 | 0.0 | 1.0 | 0.00 | 0.00 | 0.00 | 90 | 1016.1 |
| 20260507001003 | 38 | 9 | 0.0 | 1.0 | 0.00 | 0.00 | 0.00 | 89 | 1016.1 |
| 20260507000503 | 39 | 9 | 0.0 | 1.0 | 0.00 | 0.00 | 0.00 | 89 | 1016.1 |
| 20260507000005 | 39 | 9 | 0.0 | 1.0 | 0.00 | 0.00 | 0.00 | 89 | 1016.1 |
| 20260506235504 | 39 | 0 | 0.0 | 0.0 | 0.00 | 0.00 | 0.00 | 89 | 1016.1 |
| 20260506235213 | 39 | 9 | 0.0 | 1.0 | 0.00 | 0.00 | 0.00 | 88 | 1016.1 |
| 20260506234503 | 39 | 9 | 0.0 | 1.0 | 0.00 | 0.00 | 0.00 | 88 | 1016.0 |
| 20260506234214 | 39 | 0 | 0.0 | 0.0 | 0.00 | 0.00 | 0.00 | 88 | 1016.0 |
| 20260506233717 | 39 | 0 | 0.0 | 0.0 | 0.00 | 0.00 | 0.00 | 88 | 1016.0 |
| 20260506233003 | 40 | 0 | 0.0 | 0.0 | 0.00 | 0.00 | 0.00 | 88 | 1016.0 |
| 20260506232504 | 40 | 0 | 0.0 | 0.0 | 0.00 | 0.00 | 0.00 | 88 | 1016.0 |
| 20260506232003 | 40 | 0 | 0.0 | 0.0 | 0.00 | 0.00 | 0.00 | 88 | 1016.1 |
| 20260506231503 | 40 | 0 | 0.0 | 0.0 | 0.00 | 0.00 | 0.00 | 88 | 1016.1 |
| 20260506231004 | 40 | 9 | 0.0 | 1.0 | 0.00 | 0.00 | 0.00 | 87 | 1016.1 |
| 20260506230504 | 40 | 9 | 0.0 | 1.0 | 0.00 | 0.00 | 0.00 | 87 | 1016.1 |
| 20260506230218 | 40 | 9 | 0.0 | 2.0 | 0.00 | 0.00 | 0.00 | 87 | 1016.1 |
| 20260506225504 | 40 | 9 | 0.0 | 2.0 | 0.00 | 0.00 | 0.00 | 87 | 1016.2 |
| 20260506225003 | 41 | 0 | 0.0 | 0.0 | 0.00 | 0.00 | 0.00 | 86 | 1016.2 |
| 20260506224717 | 41 | 0 | 0.0 | 0.0 | 0.00 | 0.00 | 0.00 | 86 | 1016.2 |
| 20260506224003 | 41 | 0 | 0.0 | 0.0 | 0.00 | 0.00 | 0.00 | 86 | 1016.2 |
| 20260506223503 | 41 | 0 | 0.0 | 0.0 | 0.00 | 0.00 | 0.00 | 86 | 1016.2 |
| 20260506223004 | 42 | 0 | 0.0 | 0.0 | 0.00 | 0.00 | 0.00 | 86 | 1016.2 |
| 20260506222504 | 42 | 0 | 0.0 | 0.0 | 0.00 | 0.00 | 0.00 | 85 | 1016.1 |
| 20260506222003 | 42 | 0 | 0.0 | 0.0 | 0.00 | 0.00 | 0.00 | 85 | 1016.1 |
| 20260506221714 | 42 | 0 | 0.0 | 0.0 | 0.00 | 0.00 | 0.00 | 85 | 1016.0 |
| 20260506221004 | 43 | 9 | 0.0 | 1.0 | 0.00 | 0.00 | 0.00 | 85 | 1016.0 |
| 20260506220503 | 43 | 12 | 0.0 | 2.0 | 0.00 | 0.00 | 0.00 | 85 | 1016.0 |
| 20260506220004 | 43 | 26 | 1.0 | 3.0 | 0.00 | 0.00 | 0.00 | 85 | 1015.9 |
| 20260506215504 | 43 | 35 | 0.0 | 3.0 | 0.00 | 0.00 | 0.00 | 84 | 1016.0 |
| 20260506215004 | 44 | 39 | 1.0 | 2.0 | 0.00 | 0.00 | 0.00 | 84 | 1015.9 |
| 20260506214503 | 44 | 42 | 1.0 | 3.0 | 0.00 | 0.00 | 0.00 | 84 | 1015.9 |
| 20260506214215 | 44 | 44 | 1.0 | 3.0 | 0.00 | 0.00 | 0.00 | 84 | 1015.9 |
| 20260506213718 | 44 | 43 | 1.0 | 3.0 | 0.00 | 0.00 | 0.00 | 84 | 1015.9 |
| 20260506213004 | 45 | 52 | 0.0 | 4.0 | 0.00 | 0.00 | 0.00 | 83 | 1015.8 |
| 20260506212503 | 45 | 92 | 1.0 | 6.0 | 0.00 | 0.00 | 0.00 | 84 | 1015.7 |
| 20260506212003 | 45 | 98 | 3.0 | 8.0 | 0.00 | 0.00 | 0.00 | 84 | 1015.6 |
| 20260506211503 | 45 | 101 | 3.0 | 8.0 | 0.00 | 0.00 | 0.00 | 83 | 1015.6 |
| 20260506211004 | 45 | 94 | 2.0 | 7.0 | 0.00 | 0.00 | 0.00 | 83 | 1015.7 |
| 20260506210503 | 45 | 72 | 2.0 | 5.0 | 0.00 | 0.00 | 0.00 | 83 | 1015.7 |
| 20260506210004 | 45 | 66 | 2.0 | 4.0 | 0.00 | 0.00 | 0.00 | 83 | 1015.8 |
| 20260506205503 | 45 | 63 | 2.0 | 6.0 | 0.00 | 0.00 | 0.00 | 83 | 1015.8 |
| 20260506205004 | 45 | 57 | 2.0 | 6.0 | 0.00 | 0.00 | 0.00 | 83 | 1015.8 |
| 20260506204503 | 46 | 54 | 2.0 | 5.0 | 0.00 | 0.00 | 0.00 | 83 | 1015.8 |
| 20260506204004 | 46 | 79 | 2.0 | 4.0 | 0.00 | 0.00 | 0.00 | 83 | 1015.8 |
| 20260506203714 | 46 | 83 | 2.0 | 4.0 | 0.00 | 0.00 | 0.00 | 83 | 1015.8 |
| 20260506203004 | 46 | 71 | 2.0 | 4.0 | 0.00 | 0.00 | 0.00 | 82 | 1015.8 |
| 20260506202715 | 46 | 68 | 2.0 | 5.0 | 0.00 | 0.00 | 0.00 | 82 | 1015.7 |
| 20260506202003 | 46 | 71 | 3.0 | 7.0 | 0.00 | 0.00 | 0.00 | 82 | 1015.7 |
| 20260506201504 | 46 | 71 | 3.0 | 9.0 | 0.00 | 0.00 | 0.00 | 81 | 1015.6 |
| 20260506201004 | 46 | 79 | 3.0 | 9.0 | 0.00 | 0.00 | 0.00 | 81 | 1015.6 |
| 20260506200503 | 47 | 86 | 2.0 | 7.0 | 0.00 | 0.00 | 0.00 | 81 | 1015.6 |
| 20260506200003 | 47 | 82 | 3.0 | 8.0 | 0.00 | 0.00 | 0.00 | 80 | 1015.5 |
| 20260506195718 | 47 | 82 | 3.0 | 8.0 | 0.00 | 0.00 | 0.00 | 80 | 1015.5 |
| 20260506195003 | 47 | 78 | 4.0 | 8.0 | 0.00 | 0.00 | 0.00 | 80 | 1015.6 |
| 20260506194713 | 47 | 75 | 4.0 | 10.0 | 0.00 | 0.00 | 0.00 | 79 | 1015.5 |
| 20260506194004 | 47 | 80 | 4.0 | 10.0 | 0.00 | 0.00 | 0.00 | 79 | 1015.5 |
| 20260506193504 | 48 | 80 | 4.0 | 9.0 | 0.00 | 0.00 | 0.00 | 78 | 1015.4 |
| 20260506193004 | 48 | 72 | 4.0 | 10.0 | 0.00 | 0.00 | 0.00 | 78 | 1015.4 |
| 20260506192715 | 48 | 74 | 4.0 | 10.0 | 0.00 | 0.00 | 0.00 | 77 | 1015.4 |
| 20260506192004 | 48 | 69 | 4.0 | 9.0 | 0.00 | 0.00 | 0.00 | 76 | 1015.4 |
| 20260506191504 | 48 | 63 | 4.0 | 9.0 | 0.00 | 0.00 | 0.00 | 76 | 1015.3 |
| 20260506191004 | 48 | 74 | 5.0 | 9.0 | 0.00 | 0.00 | 0.00 | 75 | 1015.4 |
| 20260506190504 | 48 | 73 | 5.0 | 10.0 | 0.00 | 0.00 | 0.00 | 74 | 1015.3 |
| 20260506190215 | 49 | 72 | 5.0 | 10.0 | 0.00 | 0.00 | 0.00 | 74 | 1015.3 |
| 20260506185504 | 49 | 65 | 4.0 | 10.0 | 0.00 | 0.00 | 0.00 | 74 | 1015.3 |
| 20260506185003 | 49 | 65 | 3.0 | 8.0 | 0.00 | 0.00 | 0.00 | 74 | 1015.3 |
| 20260506184503 | 49 | 74 | 4.0 | 9.0 | 0.00 | 0.00 | 0.00 | 74 | 1015.2 |
| 20260506184217 | 49 | 75 | 4.0 | 9.0 | 0.00 | 0.00 | 0.00 | 73 | 1015.2 |
| 20260506183504 | 49 | 70 | 4.0 | 10.0 | 0.00 | 0.00 | 0.00 | 75 | 1015.2 |
| 20260506183005 | 49 | 59 | 4.0 | 10.0 | 0.00 | 0.00 | 0.00 | 74 | 1015.2 |
| 20260506182504 | 50 | 65 | 6.0 | 12.0 | 0.00 | 0.00 | 0.00 | 74 | 1015.2 |
| 20260506182004 | 50 | 70 | 6.0 | 12.0 | 0.00 | 0.00 | 0.00 | 73 | 1015.2 |
| 20260506181503 | 50 | 63 | 6.0 | 11.0 | 0.00 | 0.00 | 0.00 | 73 | 1015.1 |
| 20260506181003 | 50 | 65 | 6.0 | 11.0 | 0.00 | 0.00 | 0.00 | 73 | 1015.1 |
| 20260506180504 | 50 | 69 | 6.0 | 12.0 | 0.00 | 0.00 | 0.00 | 72 | 1015.1 |
| 20260506180004 | 50 | 69 | 6.0 | 12.0 | 0.00 | 0.00 | 0.00 | 73 | 1015.1 |
| 20260506175503 | 50 | 67 | 7.0 | 12.0 | 0.00 | 0.00 | 0.00 | 72 | 1015.0 |
| 20260506175217 | 50 | 61 | 6.0 | 12.0 | 0.00 | 0.00 | 0.00 | 72 | 1015.1 |
| 20260506174715 | 50 | 56 | 5.0 | 12.0 | 0.00 | 0.00 | 0.00 | 72 | 1015.0 |
| 20260506174003 | 51 | 74 | 5.0 | 11.0 | 0.00 | 0.00 | 0.00 | 72 | 1015.0 |
| 20260506173504 | 51 | 69 | 6.0 | 11.0 | 0.00 | 0.00 | 0.00 | 71 | 1015.0 |
| 20260506173003 | 51 | 57 | 7.0 | 13.0 | 0.00 | 0.00 | 0.00 | 70 | 1014.9 |
| 20260506172504 | 51 | 66 | 7.0 | 13.0 | 0.00 | 0.00 | 0.00 | 70 | 1014.9 |
| 20260506172003 | 51 | 76 | 5.0 | 12.0 | 0.00 | 0.00 | 0.00 | 71 | 1014.8 |
| 20260506171504 | 52 | 62 | 5.0 | 16.0 | 0.00 | 0.00 | 0.00 | 71 | 1014.9 |
| 20260506171216 | 51 | 57 | 6.0 | 16.0 | 0.00 | 0.00 | 0.00 | 70 | 1014.8 |
| 20260506170503 | 52 | 62 | 6.0 | 12.0 | 0.00 | 0.00 | 0.00 | 70 | 1014.8 |
| 20260506170217 | 52 | 64 | 6.0 | 11.0 | 0.00 | 0.00 | 0.00 | 69 | 1014.8 |
| 20260506165504 | 52 | 69 | 6.0 | 12.0 | 0.00 | 0.00 | 0.00 | 71 | 1014.8 |
| 20260506165003 | 52 | 71 | 6.0 | 12.0 | 0.00 | 0.00 | 0.00 | 71 | 1014.8 |
| 20260506164503 | 52 | 67 | 6.0 | 12.0 | 0.00 | 0.00 | 0.00 | 71 | 1014.8 |
| 20260506164004 | 52 | 67 | 7.0 | 12.0 | 0.00 | 0.00 | 0.00 | 72 | 1014.8 |
| 20260506163504 | 51 | 74 | 7.0 | 14.0 | 0.00 | 0.00 | 0.00 | 71 | 1014.9 |
| 20260506163003 | 51 | 72 | 7.0 | 14.0 | 0.00 | 0.00 | 0.00 | 72 | 1014.9 |
| 20260506162503 | 51 | 54 | 6.0 | 13.0 | 0.00 | 0.00 | 0.00 | 71 | 1014.9 |
| 20260506162004 | 52 | 40 | 5.0 | 12.0 | 0.00 | 0.00 | 0.00 | 71 | 1014.9 |
| 20260506161503 | 52 | 48 | 6.0 | 13.0 | 0.00 | 0.00 | 0.00 | 70 | 1014.9 |
| 20260506161003 | 52 | 50 | 6.0 | 14.0 | 0.00 | 0.00 | 0.00 | 69 | 1014.8 |
| 20260506160004 | 52 | 36 | 5.0 | 10.0 | 0.00 | 0.00 | 0.00 | 69 | 1014.8 |
| 20260506155503 | 52 | 39 | 6.0 | 12.0 | 0.00 | 0.00 | 0.00 | 69 | 1014.7 |
| 20260506155004 | 52 | 40 | 6.0 | 16.0 | 0.00 | 0.00 | 0.00 | 69 | 1014.8 |
| 20260506154504 | 52 | 38 | 6.0 | 16.0 | 0.00 | 0.00 | 0.00 | 70 | 1014.8 |
| 20260506154004 | 52 | 42 | 6.0 | 12.0 | 0.00 | 0.00 | 0.00 | 69 | 1014.8 |
| 20260506153503 | 53 | 43 | 7.0 | 12.0 | 0.00 | 0.00 | 0.00 | 69 | 1014.9 |
| 20260506153003 | 53 | 44 | 7.0 | 12.0 | 0.00 | 0.00 | 0.00 | 68 | 1014.9 |
| 20260506152503 | 53 | 43 | 5.0 | 12.0 | 0.00 | 0.00 | 0.00 | 69 | 1014.8 |
| 20260506152003 | 53 | 47 | 5.0 | 11.0 | 0.00 | 0.00 | 0.00 | 70 | 1014.9 |
| 20260506151503 | 53 | 53 | 6.0 | 13.0 | 0.00 | 0.00 | 0.00 | 70 | 1014.9 |
| 20260506151003 | 52 | 48 | 5.0 | 13.0 | 0.00 | 0.00 | 0.00 | 69 | 1014.9 |
| 20260506150505 | 52 | 44 | 6.0 | 12.0 | 0.00 | 0.00 | 0.00 | 71 | 1015.0 |
| 20260506150004 | 52 | 47 | 8.0 | 14.0 | 0.00 | 0.00 | 0.00 | 71 | 1015.0 |
| 20260506145503 | 52 | 46 | 9.0 | 15.0 | 0.00 | 0.00 | 0.00 | 70 | 1015.0 |
| 20260506145004 | 52 | 38 | 8.0 | 15.0 | 0.00 | 0.00 | 0.00 | 70 | 1015.0 |
| 20260506144503 | 52 | 37 | 7.0 | 14.0 | 0.00 | 0.00 | 0.00 | 71 | 1015.0 |
| 20260506144004 | 52 | 43 | 7.0 | 14.0 | 0.00 | 0.00 | 0.00 | 70 | 1015.1 |
| 20260506143713 | 52 | 45 | 6.0 | 14.0 | 0.00 | 0.00 | 0.00 | 70 | 1015.1 |
| 20260506143004 | 52 | 49 | 7.0 | 14.0 | 0.00 | 0.00 | 0.00 | 72 | 1015.1 |
| 20260506142503 | 52 | 48 | 7.0 | 16.0 | 0.00 | 0.00 | 0.00 | 71 | 1015.0 |
| 20260506142003 | 52 | 39 | 7.0 | 16.0 | 0.00 | 0.00 | 0.00 | 70 | 1015.0 |
| 20260506141504 | 52 | 41 | 6.0 | 13.0 | 0.00 | 0.00 | 0.00 | 70 | 1015.1 |
| 20260506141004 | 52 | 46 | 7.0 | 14.0 | 0.00 | 0.00 | 0.00 | 70 | 1015.0 |
| 20260506140715 | 52 | 45 | 8.0 | 18.0 | 0.00 | 0.00 | 0.00 | 70 | 1015.1 |
| 20260506140005 | 53 | 39 | 7.0 | 18.0 | 0.00 | 0.00 | 0.00 | 71 | 1015.1 |
| 20260506135503 | 52 | 35 | 8.0 | 15.0 | 0.00 | 0.00 | 0.00 | 70 | 1015.0 |
| 20260506135004 | 52 | 36 | 8.0 | 15.0 | 0.00 | 0.00 | 0.00 | 70 | 1015.0 |
| 20260506134503 | 53 | 45 | 8.0 | 15.0 | 0.00 | 0.00 | 0.00 | 69 | 1015.0 |
| 20260506134003 | 53 | 49 | 8.0 | 17.0 | 0.00 | 0.00 | 0.00 | 67 | 1015.0 |
| 20260506133503 | 54 | 44 | 8.0 | 17.0 | 0.00 | 0.00 | 0.00 | 67 | 1015.1 |